CAPE
0 0 0 0 0 0 0 0 0 0 0 0 0 0 0 0 0 0 0 0 0 29 183 37 116 219 783 276 89 40 2 1 0 0 0 48 26 86 25 0 14 51 0 19 191
0 0 0 0 0 0 0 0 0 0 0 0 0 0 0 0 0 0 0 0 0 25 0 0 0 221 382 240 86 55 3 63 75 69 0 52 53 93 3 6 46 76 31 123 214
0 0 0 0 0 0 0 0 0 0 0 0 0 0 0 0 0 0 0 0 9 2 0 0 3 60 120 104 79 80 14 140 151 104 0 46 81 120 11 9 32 31 1 49 164
0 0 0 0 0 0 0 0 0 0 0 0 0 0 0 0 0 0 0 0 6 0 0 0 0 22 84 79 127 82 44 185 207 35 89 85 107 131 70 48 14 76 32 65 142
0 0 0 0 0 0 0 0 0 0 0 0 0 0 0 0 0 0 0 8 21 0 0 0 0 3 3 109 179 138 101 198 248 240 89 273 142 226 158 42 60 150 104 119 181
0 0 0 0 0 0 0 0 0 0 0 0 0 0 0 0 0 0 0 0 0 0 0 0 0 0 45 58 144 161 125 118 158 220 162 117 202 275 182 64 116 163 111 202 316
0 0 0 0 0 0 0 0 0 0 0 0 0 0 0 0 0 0 0 0 0 0 0 0 0 0 2 63 78 109 101 66 62 148 18 2 226 243 115 145 149 250 203 248 357
0 0 0 0 0 0 0 0 0 0 0 0 0 0 0 0 0 0 0 0 0 0 0 0 0 0 1 12 47 72 41 34 13 53 27 0 1 192 68 65 190 278 320 313 401
0 0 0 0 0 0 0 0 0 0 0 0 0 0 0 0 0 0 0 0 0 0 0 0 0 0 1 0 0 1 0 25 15 15 39 18 2 194 95 59 73 164 318 344 338
0 0 0 0 0 0 0 0 0 0 0 0 0 0 0 0 0 0 0 0 0 0 0 0 0 0 0 0 0 0 0 4 1 12 33 13 5 170 181 136 130 58 35 162 195
0 0 0 0 0 0 0 0 0 0 0 0 0 0 0 0 0 0 0 0 0 0 0 0 0 0 0 0 0 0 0 0 0 19 71 41 13 68 225 204 168 90 24 4 10
0 0 0 0 0 0 0 0 0 0 0 0 0 0 0 0 0 0 0 0 0 0 0 0 0 0 0 0 0 0 0 0 0 54 96 48 42 50 144 220 230 197 104 47 19
0 0 0 0 0 0 0 0 0 0 0 0 0 0 0 0 0 0 0 0 0 0 0 0 0 0 0 0 0 0 0 0 0 2 101 32 7 48 92 94 148 171 150 102 78
0 0 0 0 0 0 0 0 0 0 0 0 0 0 0 0 0 0 0 0 0 0 0 0 0 0 0 0 0 0 0 0 0 0 0 0 18 0 16 228 227 207 182 143 101
0 0 0 0 0 0 0 0 0 0 0 0 0 0 0 0 0 0 0 0 0 0 0 0 0 0 0 0 0 0 0 0 0 0 0 2 18 5 0 72 187 279 207 200 129
0 0 0 0 0 0 0 0 0 0 0 0 0 0 0 0 0 0 0 0 0 0 0 0 0 0 0 0 0 0 0 0 0 0 0 0 29 2 2 46 133 223 342 369 207
0 0 0 0 0 0 0 0 0 0 0 0 0 0 0 0 0 0 0 0 0 0 0 0 0 0 0 0 0 0 0 0 0 0 0 0 4 41 31 0 0 193 254 401 419
0 0 0 0 0 0 0 0 0 0 0 0 0 0 0 0 0 0 0 0 0 0 0 0 0 0 0 0 0 0 0 0 0 0 0 0 0 3 0 3 0 249 300 231 263
0 0 0 0 0 0 0 0 0 0 0 0 0 0 0 0 0 0 0 0 0 0 0 0 0 0 0 0 0 0 0 0 0 0 0 0 0 0 2 62 180 203 35 201 310
0 0 0 0 0 0 0 0 0 0 0 0 0 0 0 0 0 0 0 0 0 0 0 0 0 0 0 0 0 0 0 0 0 0 0 0 0 0 0 112 178 254 207 73 25
0 0 0 0 0 0 0 0 0 0 0 0 0 0 0 0 0 0 0 0 0 0 0 0 0 0 0 0 0 0 0 0 0 0 0 0 0 0 3 176 373 393 406 356 310
0 0 0 0 0 0 0 0 0 0 0 0 0 0 0 0 0 0 0 0 0 0 0 0 0 0 0 0 0 0 0 0 0 0 0 0 0 23 121 263 335 375 308 317 429
0 0 0 0 0 0 0 0 0 0 0 0 0 0 0 0 0 0 0 0 0 0 0 0 0 0 0 0 0 0 0 0 0 0 0 0 0 178 214 405 304 267 317 791 770
0 0 0 0 0 0 0 0 0 0 0 0 0 0 0 0 0 0 0 0 0 0 0 0 0 0 0 0 0 0 0 0 0 0 0 0 0 185 378 468 377 189 634 952 1053
0 0 0 0 0 0 0 0 0 0 0 0 0 0 0 0 0 0 0 0 0 0 0 0 0 0 0 0 0 14 0 0 0 0 0 0 0 356 445 101 277 445 1009 1474 1508
0 0 0 0 0 0 0 0 0 0 0 0 0 0 0 0 0 0 1 0 0 0 0 0 0 0 0 0 14 47 74 0 0 0 1 26 67 453 319 431 610 1225 1626 2031 1749
0 0 0 0 0 0 0 0 0 0 0 0 0 0 0 0 0 0 0 0 0 0 0 0 0 0 0 0 0 13 128 146 69 109 45 11 292 382 511 445 746 1504 2143 1714 1614
CIN
-0 -0 -0 -0 -0 -0 -0 -0 -0 -0 -0 -0 -0 -0 -0 -0 -0 -0 -0 -0 -0 -596 -460 -495 -381 -300 -267 -216 -330 -344 -118 -40 -0 -0 -0 -177 -149 -136 -178 -0 -224 -161 -0 -183 -232
-0 -0 -0 -0 -0 -0 -0 -0 -0 -0 -0 -0 -0 -0 -0 -0 -0 -0 -0 -0 -0 -542 -0 -0 -0 -218 -172 -227 -246 -156 -71 -118 -147 -193 -0 -179 -166 -131 -84 -198 -210 -206 -304 -254 -202
-0 -0 -0 -0 -0 -0 -0 -0 -0 -0 -0 -0 -0 -0 -0 -0 -0 -0 -0 -0 -637 -156 -0 -0 -228 -385 -225 -269 -270 -212 -118 -145 -166 -202 -0 -187 -177 -149 -121 -216 -197 -232 -114 -298 -226
-0 -0 -0 -0 -0 -0 -0 -0 -0 -0 -0 -0 -0 -0 -0 -0 -0 -0 -0 -0 -313 -0 -0 -0 -0 -337 -239 -233 -276 -174 -209 -159 -194 -277 -209 -190 -197 -157 -171 -146 -200 -205 -291 -260 -223
-0 -0 -0 -0 -0 -0 -0 -0 -0 -0 -0 -0 -0 -0 -0 -0 -0 -0 -0 -575 -613 -0 -0 -0 -0 -177 -188 -226 -253 -203 -156 -172 -215 -183 -228 -188 -186 -132 -177 -227 -214 -226 -221 -190 -179
-0 -0 -0 -0 -0 -0 -0 -0 -0 -0 -0 -0 -0 -0 -0 -0 -0 -0 -0 -0 -0 -0 -0 -0 -0 -0 -276 -275 -224 -244 -212 -203 -181 -197 -202 -180 -158 -153 -259 -327 -265 -230 -201 -165 -142
-0 -0 -0 -0 -0 -0 -0 -0 -0 -0 -0 -0 -0 -0 -0 -0 -0 -0 -0 -0 -0 -0 -0 -0 -0 -0 -43 -234 -363 -307 -214 -241 -205 -212 -252 -164 -115 -138 -328 -334 -297 -254 -220 -191 -155
-0 -0 -0 -0 -0 -0 -0 -0 -0 -0 -0 -0 -0 -0 -0 -0 -0 -0 -0 -0 -0 -0 -0 -0 -0 -0 -18 -379 -317 -269 -269 -232 -257 -235 -232 -0 -117 -232 -362 -315 -324 -313 -242 -196 -188
-0 -0 -0 -0 -0 -0 -0 -0 -0 -0 -0 -0 -0 -0 -0 -0 -0 -0 -0 -0 -0 -0 -0 -0 -0 -0 -135 -0 -0 -127 -0 -200 -191 -314 -250 -225 -152 -266 -337 -317 -311 -335 -286 -229 -192
-0 -0 -0 -0 -0 -0 -0 -0 -0 -0 -0 -0 -0 -0 -0 -0 -0 -0 -0 -0 -0 -0 -0 -0 -0 -0 -0 -0 -0 -0 -0 -197 -72 -208 -248 -198 -161 -281 -330 -294 -244 -308 -374 -315 -259
-0 -0 -0 -0 -0 -0 -0 -0 -0 -0 -0 -0 -0 -0 -0 -0 -0 -0 -0 -0 -0 -0 -0 -0 -0 -0 -0 -0 -0 -0 -0 -0 -0 -245 -160 -164 -195 -223 -320 -335 -307 -280 -286 -344 -413
-0 -0 -0 -0 -0 -0 -0 -0 -0 -0 -0 -0 -0 -0 -0 -0 -0 -0 -0 -0 -0 -0 -0 -0 -0 -0 -0 -0 -0 -0 -0 -0 -0 -240 -201 -182 -146 -210 -308 -273 -274 -283 -270 -258 -276
-0 -0 -0 -0 -0 -0 -0 -0 -0 -0 -0 -0 -0 -0 -0 -0 -0 -0 -0 -0 -0 -0 -0 -0 -0 -0 -0 -0 -0 -0 -0 -0 -0 -138 -242 -248 -184 -166 -285 -353 -355 -331 -293 -295 -270
-0 -0 -0 -0 -0 -0 -0 -0 -0 -0 -0 -0 -0 -0 -0 -0 -0 -0 -0 -0 -0 -0 -0 -0 -0 -0 -0 -0 -0 -0 -0 -0 -0 -0 -0 -0 -113 -0 -96 -239 -287 -308 -298 -303 -281
-0 -0 -0 -0 -0 -0 -0 -0 -0 -0 -0 -0 -0 -0 -0 -0 -0 -0 -0 -0 -0 -0 -0 -0 -0 -0 -0 -0 -0 -0 -0 -0 -0 -0 -0 -108 -161 -103 -3 -171 -177 -227 -265 -270 -282
-0 -0 -0 -0 -0 -0 -0 -0 -0 -0 -0 -0 -0 -0 -0 -0 -0 -0 -0 -0 -0 -0 -0 -0 -0 -0 -0 -0 -0 -0 -0 -0 -0 -0 -0 -0 -160 -37 -41 -108 -144 -243 -279 -266 -253
-0 -0 -0 -0 -0 -0 -0 -0 -0 -0 -0 -0 -0 -0 -0 -0 -0 -0 -0 -0 -0 -0 -0 -0 -0 -0 -0 -0 -0 -0 -0 -0 -0 -0 -0 -0 -146 -143 -117 -0 -0 -144 -223 -248 -234
-0 -0 -0 -0 -0 -0 -0 -0 -0 -0 -0 -0 -0 -0 -0 -0 -0 -0 -0 -0 -0 -0 -0 -0 -0 -0 -0 -0 -0 -0 -0 -0 -0 -0 -0 -0 -0 -109 -0 -144 -0 -280 -234 -248 -245
-0 -0 -0 -0 -0 -0 -0 -0 -0 -0 -0 -0 -0 -0 -0 -0 -0 -0 -0 -0 -0 -0 -0 -0 -0 -0 -0 -0 -0 -0 -0 -0 -0 -0 -0 -0 -0 -0 -65 -234 -179 -200 -324 -207 -211
-0 -0 -0 -0 -0 -0 -0 -0 -0 -0 -0 -0 -0 -0 -0 -0 -0 -0 -0 -0 -0 -0 -0 -0 -0 -0 -0 -0 -0 -0 -0 -0 -0 -0 -0 -0 -0 -0 -0 -116 -184 -166 -212 -305 -273
-0 -0 -0 -0 -0 -0 -0 -0 -0 -0 -0 -0 -0 -0 -0 -0 -0 -0 -0 -0 -0 -0 -0 -0 -0 -0 -0 -0 -0 -0 -0 -0 -0 -0 -0 -0 -0 -0 -135 -234 -247 -214 -209 -225 -306
-0 -0 -0 -0 -0 -0 -0 -0 -0 -0 -0 -0 -0 -0 -0 -0 -0 -0 -0 -0 -0 -0 -0 -0 -0 -0 -0 -0 -0 -0 -0 -0 -0 -0 -0 -0 -0 -315 -355 -377 -401 -278 -302 -304 -299
-0 -0 -0 -0 -0 -0 -0 -0 -0 -0 -0 -0 -0 -0 -0 -0 -0 -0 -0 -0 -0 -0 -0 -0 -0 -0 -0 -0 -0 -0 -0 -0 -0 -0 -0 -0 -0 -343 -451 -381 -424 -316 -316 -252 -302
-0 -0 -0 -0 -0 -0 -0 -0 -0 -0 -0 -0 -0 -0 -0 -0 -0 -0 -0 -0 -0 -0 -0 -0 -0 -0 -0 -0 -0 -0 -0 -0 -0 -0 -0 -0 -0 -132 -267 -221 -319 -267 -259 -273 -225
-0 -0 -0 -0 -0 -0 -0 -0 -0 -0 -0 -0 -0 -0 -0 -0 -0 -0 -0 -0 -0 -0 -0 -0 -0 -0 -0 -0 -0 -91 -0 -0 -0 -0 -0 -0 -0 -77 -210 -269 -272 -290 -275 -242 -158
-0 -0 -0 -0 -0 -0 -0 -0 -0 -0 -0 -0 -0 -0 -0 -0 -0 -0 -136 -0 -0 -0 -0 -0 -0 -0 -0 -0 -57 -108 -166 -1 -0 -0 -24 -103 -84 -317 -504 -413 -284 -230 -234 -135 -139
-0 -0 -0 -0 -0 -0 -0 -0 -0 -0 -0 -0 -0 -0 -53 -0 -0 -0 -0 -0 -0 -0 -0 -0 -0 -0 -0 -0 -0 -50 -95 -141 -172 -223 -144 -45 -135 -331 -302 -297 -267 -217 -126 -114 -131
Wind_Speed
26 26 26 26 25 25 25 24 23 22 20 20 19 20 21 22 22 20 21 19 5 16 12 16 11 10 13 17 18 19 22 24 20 22 21 24 23 19 20 25 12 13 23 26 25
26 27 27 27 27 27 27 27 26 26 24 22 21 20 21 22 22 23 22 20 4 10 17 15 12 11 19 19 18 21 21 19 20 17 21 22 23 23 22 24 12 13 17 25 26
27 27 28 28 29 29 29 29 28 28 26 24 22 22 21 20 20 14 16 23 4 6 15 15 15 14 21 19 19 18 20 19 13 17 15 22 23 21 24 19 19 23 23 24 28
28 28 29 29 30 30 31 30 30 29 28 26 24 23 22 17 7 16 17 4 5 10 13 16 16 17 20 19 18 20 19 12 8 14 12 18 18 20 21 19 21 24 25 26 25
29 30 31 31 31 31 32 32 31 30 28 27 25 23 17 15 12 13 8 4 6 6 12 16 17 18 19 16 16 14 16 17 11 13 13 15 14 17 20 20 22 24 24 27 26
30 31 32 32 33 33 33 33 33 30 28 26 23 21 16 14 14 8 6 4 3 6 11 14 15 17 19 18 18 14 15 13 13 15 14 14 17 18 20 23 23 24 25 26 26
31 32 33 33 34 34 35 35 33 30 26 23 19 17 17 17 10 14 18 4 3 3 5 10 14 15 17 18 17 18 16 13 16 17 16 15 15 14 23 24 25 23 24 25 25
32 33 34 35 36 36 36 34 31 26 21 18 15 16 20 18 20 21 14 12 10 9 7 6 9 14 16 19 20 19 15 15 16 17 15 15 14 18 22 23 22 23 23 24 24
33 34 34 35 36 37 34 31 23 19 16 14 17 17 19 20 16 14 10 8 6 8 6 5 6 9 13 14 16 16 15 14 13 16 14 15 16 18 19 20 21 21 23 23 24
34 35 35 36 36 36 33 25 19 18 17 18 18 19 19 14 18 16 12 7 7 4 5 3 5 5 7 9 13 14 14 15 13 13 14 14 14 16 17 18 19 19 21 22 23
35 35 35 36 37 32 29 21 23 22 21 23 23 23 26 22 19 14 10 6 8 8 6 5 2 7 8 7 10 12 13 13 10 12 14 14 13 13 15 15 16 19 19 20 21
35 35 36 35 35 28 23 20 20 24 30 29 30 25 25 19 19 16 8 10 11 8 9 9 6 6 5 2 5 8 11 11 16 17 11 10 11 10 12 16 17 18 19 20 20
35 35 36 35 31 23 21 19 23 24 25 24 19 20 20 13 18 17 9 12 14 11 9 10 14 5 4 3 2 6 5 11 19 18 11 8 9 11 9 12 17 18 18 19 20
35 35 35 36 21 28 20 21 29 18 23 20 19 17 12 11 17 15 12 11 14 11 12 16 14 4 7 7 6 7 4 7 15 14 9 16 14 16 13 11 13 16 18 20 21
35 35 33 30 28 25 22 28 24 18 20 19 16 13 12 12 13 15 13 15 13 13 13 15 13 8 8 7 4 6 11 17 15 10 16 13 15 8 20 6 12 17 20 20 20
35 34 33 24 26 22 27 26 17 18 17 17 13 13 9 15 13 13 14 15 14 14 17 16 13 10 8 7 6 5 13 16 13 11 13 12 11 14 11 21 11 18 19 21 18
35 34 33 25 22 21 26 19 16 15 18 16 17 13 11 14 18 15 15 15 16 18 19 19 19 15 10 8 9 9 9 14 14 12 10 16 9 9 21 17 18 20 17 19 19
35 35 24 15 22 21 18 14 15 15 16 19 20 16 15 12 17 17 14 16 18 15 15 16 19 14 10 10 10 7 7 9 14 12 12 13 9 6 22 24 19 22 20 21 20
35 26 23 20 15 12 12 13 15 14 17 20 17 15 15 15 13 13 14 17 18 15 15 15 19 17 13 11 8 8 11 10 12 15 15 13 17 24 23 20 14 14 10 15 15
28 24 19 19 6 9 14 15 15 16 20 19 16 16 16 16 13 12 13 17 18 14 16 14 17 15 16 13 14 11 5 14 17 16 16 17 21 13 20 19 16 15 20 13 15
22 21 21 10 11 14 17 15 20 22 19 18 16 20 16 16 15 14 14 16 14 12 14 12 13 13 13 10 8 11 13 15 15 18 18 22 15 12 12 15 13 14 14 13 7
21 20 16 10 13 16 18 18 18 22 23 21 17 16 13 15 17 20 12 15 8 6 11 13 13 15 13 12 13 12 11 11 14 14 14 13 15 16 16 8 14 17 14 14 16
22 19 16 15 16 17 19 19 21 23 20 18 17 14 17 18 17 20 16 21 7 5 6 8 14 15 17 15 13 12 9 10 11 12 11 12 16 19 10 12 23 8 14 16 15
19 20 17 15 18 18 21 23 21 20 25 22 22 19 18 20 19 20 19 16 4 4 7 5 12 12 13 14 12 14 12 7 9 13 11 12 18 13 8 14 13 9 12 14 14
18 20 18 19 20 23 21 22 23 25 20 22 20 19 17 20 22 18 18 14 11 10 9 8 16 14 17 16 14 16 13 6 7 10 11 15 7 15 9 4 10 13 16 16 17
20 20 21 23 23 22 21 20 22 22 22 25 24 24 24 24 24 27 20 15 13 9 9 16 16 12 17 13 14 13 15 10 15 19 21 18 5 14 7 5 9 14 13 14 15
19 19 21 23 23 22 22 22 21 24 25 29 28 29 30 24 26 27 27 19 15 4 4 8 11 14 13 8 21 16 14 11 7 21 19 10 12 3 1 3 6 9 13 14 15
Wind_Direction
324 322 317 315 313 311 308 303 297 291 280 274 269 264 264 269 260 245 186 216 62 87 13 124 143 138 135 114 107 101 66 76 107 107 114 114 110 135 112 91 196 186 134 132 114
320 321 320 319 315 314 312 308 303 298 286 276 271 265 266 271 242 207 220 230 29 60 77 113 118 127 94 106 98 79 87 104 91 127 113 119 100 110 109 99 184 4 68 103 114
322 320 320 318 315 312 310 306 301 297 291 280 272 270 268 266 259 287 279 229 86 349 72 116 121 112 82 104 95 100 74 83 176 145 141 110 101 114 92 124 139 101 98 111 121
321 319 317 315 312 308 304 302 300 296 290 284 276 275 273 297 340 278 270 93 112 291 60 112 112 93 79 96 101 99 98 175 250 181 168 140 131 113 99 102 114 111 110 117 122
322 316 314 310 308 305 303 301 299 297 290 287 283 284 309 306 308 300 356 38 108 65 95 112 92 86 76 98 108 123 125 120 229 203 169 158 146 126 107 68 86 101 112 127 132
319 317 314 312 309 305 302 300 299 296 292 289 290 292 308 300 306 349 358 46 36 91 110 115 104 93 78 84 99 144 146 145 171 167 185 151 131 111 111 87 93 106 121 130 136
317 315 314 312 310 306 303 300 298 294 291 295 300 304 299 286 313 278 263 344 359 33 73 96 103 88 83 71 100 101 143 158 158 146 145 139 139 148 101 103 108 113 126 134 142
314 313 312 311 310 307 304 299 298 296 303 310 313 302 286 282 270 265 279 286 288 301 318 6 63 62 63 75 62 82 148 138 144 154 148 122 146 105 115 110 115 118 131 143 145
312 312 311 311 309 307 304 303 316 325 331 329 309 298 285 281 283 285 278 293 308 299 322 0 29 51 72 68 60 81 108 121 136 134 121 95 82 117 124 123 122 128 138 148 155
311 311 310 311 310 308 305 317 334 333 323 313 303 294 286 287 281 284 277 280 299 307 313 332 358 60 56 72 84 69 85 93 102 96 127 127 105 103 127 134 136 138 141 152 162
311 310 309 310 310 306 320 330 317 314 312 297 292 286 274 281 280 280 268 257 286 283 258 280 274 165 140 121 39 36 59 79 97 87 124 152 90 109 128 134 144 151 153 159 160
311 311 309 308 307 313 336 336 337 320 301 294 281 279 273 281 277 271 259 257 268 259 270 271 234 190 169 20 28 24 17 49 30 34 88 111 172 144 136 157 157 158 162 166 166
308 309 310 307 302 337 334 350 333 328 310 303 301 283 272 272 269 263 250 262 261 259 258 263 286 236 209 191 347 350 20 11 338 331 12 200 176 121 105 154 170 174 172 171 169
304 306 310 309 329 315 330 343 311 344 309 309 304 297 274 274 268 267 257 263 267 250 267 276 279 275 243 242 273 304 142 1 343 351 13 1 22 234 3 144 165 175 174 174 173
301 303 308 317 302 312 323 302 313 339 300 314 315 311 270 264 276 262 261 266 261 266 266 277 280 267 259 259 252 291 332 316 335 350 321 347 357 76 337 94 177 175 178 175 174
296 297 306 320 307 305 288 293 335 314 302 311 324 315 277 262 280 277 263 272 274 269 269 275 291 292 287 275 178 315 320 328 340 339 322 334 356 205 51 345 189 164 170 173 169
294 286 294 309 310 314 296 315 320 309 306 310 306 312 295 271 265 286 255 255 266 262 264 271 278 287 288 284 288 287 312 313 320 321 322 323 2 170 255 236 230 175 157 166 167
293 284 310 326 303 295 302 318 307 306 296 305 303 300 295 290 270 276 268 256 266 271 264 263 270 271 278 274 283 286 299 304 307 315 315 328 341 27 276 279 236 217 193 167 169
298 310 309 311 317 305 303 307 305 302 298 290 295 302 297 285 287 277 270 263 263 259 270 265 272 274 275 281 286 293 299 312 313 309 309 322 315 292 289 290 284 295 100 147 151
312 310 311 310 2 304 289 292 294 289 284 295 292 300 293 279 279 282 277 278 264 261 264 278 272 280 271 279 289 293 312 292 297 291 295 305 305 325 321 276 297 321 278 161 172
319 309 309 331 311 288 280 286 280 273 285 288 291 291 296 288 277 280 286 282 271 263 261 265 280 277 282 274 282 287 286 294 302 293 290 297 302 315 325 301 318 299 326 355 88
320 299 315 308 297 289 279 281 284 274 274 276 288 291 313 309 286 273 283 279 307 274 251 253 276 271 278 296 300 297 288 297 292 292 301 305 307 305 303 337 295 281 332 4 1
309 303 302 293 287 282 280 281 279 274 274 276 278 291 297 293 293 265 284 276 284 289 242 217 269 273 282 292 299 301 310 302 302 298 287 301 304 302 316 136 209 353 337 349 28
311 295 296 287 284 284 282 277 276 278 270 265 267 286 288 284 269 278 282 298 289 238 237 208 271 281 285 291 304 302 306 314 302 287 285 294 305 306 122 136 129 356 19 97 3
311 296 296 285 276 275 280 278 273 270 273 265 267 275 292 286 278 286 284 293 288 274 254 249 268 283 285 294 302 303 307 293 303 288 284 290 315 154 132 102 101 97 110 106 89
299 295 293 283 279 274 273 276 272 271 269 261 260 271 272 270 271 255 283 287 290 283 251 253 266 281 282 285 291 321 316 314 292 278 264 282 315 277 277 348 76 105 103 108 84
304 302 292 283 278 272 269 271 271 273 267 254 258 267 260 267 262 245 238 271 273 273 259 256 265 277 294 292 264 299 344 343 324 251 254 293 291 240 172 74 49 71 100 100 71